#timestamp,LO_Frequency,Hit,StdDev 
1698433215.8,286046997.1,N
1698433235.7,286046997.1,N
1698433255.5,286046997.4,N
1698433275.3,286046997.4,N
1698433295.2,286046997.8,N
1698433315.0,286046995.1,Y
1698433315.9,286046995.1,P
1698433335.8,286046998.8,N
1698433355.6,286046998.3,N
1698433375.4,286046998.2,N
1698433395.3,286047000.8,N
1698433415.1,286047000.3,N
1698433435.8,286047000.6,N
1698433455.7,286047000.6,N
1698433475.5,286047000.5,N
1698433495.4,286047002.6,N
1698433515.2,286047002.2,N
1698433535.0,286047001.9,N
1698433535.9,286047001.9,N
1698433555.8,286046999.7,N
1698433575.6,286047000.2,N
1698433595.5,286047001.0,N
1698433615.3,286046998.4,N
1698433635.1,286047001.1,N
1698433655.9,286047001.2,N
1698433675.7,286046999.4,N
1698433695.5,286046996.9,N
1698433715.4,286046998.6,N
1698433735.2,286046998.7,N
1698433755.1,286046998.4,N
1698433756.0,286046998.4,N
1698433775.8,286046998.5,N
1698433795.6,286046998.6,N
1698433815.5,286046998.1,N
1698433835.3,286046999.8,N
1698433855.1,286047000.2,N
1698433875.9,286047000.6,N
1698433895.7,286047000.2,N
1698433915.6,286047002.5,N
1698433935.4,286047002.2,N
1698433955.2,286047002.4,N
1698433975.1,286046999.9,N
1698433976.0,286046999.9,N
1698433995.8,286046999.9,N
1698434015.6,286047000.0,N
1698434035.5,286046999.7,N
1698434055.3,286047000.4,N
1698434075.2,286047002.4,N
1698434095.0,286047000.6,N
1698434095.9,286047000.6,N
1698434115.7,286047000.9,N
1698434135.6,286046998.1,N
1698434155.4,286046998.2,N
1698434175.3,286047000.5,N
1698434195.1,286047000.2,N
1698434196.0,286047000.2,N
1698434215.8,286047000.2,N
1698434235.7,286047000.4,N
1698434255.5,286047002.4,N
1698434275.4,286047001.7,N
1698434295.2,286047001.4,N
1698434315.0,286047001.5,N
1698434315.9,286047001.5,N
1698434335.8,286047002.0,N
1698434355.6,286047002.6,N
1698434375.4,286047001.7,N
1698434395.3,286047002.5,N
1698434415.1,286047001.4,N
1698434435.9,286047001.9,N
1698434455.7,286047003.5,N
1698434475.5,286047003.7,N
1698434495.4,286047004.0,Y
1698434515.2,286047001.8,P
1698434535.1,286047001.9,P
1698434536.0,286047001.9,P
1698434555.8,286047001.7,Y
1698434575.6,286047000.4,P
1698434595.5,286047002.4,P
1698434615.3,286047004.2,P
1698434635.1,286047003.0,N
1698434655.9,286047003.4,N
1698434675.7,286047003.3,N
1698434695.6,286047004.0,Y
1698434715.4,286046999.8,P
1698434735.2,286047002.6,N
1698434755.1,286047002.2,N
1698434756.0,286047002.2,N
1698434775.8,286047002.3,N
1698434795.6,286047002.4,N
1698434815.5,286047002.6,N
1698434835.3,286047001.6,N
1698434855.2,286047002.2,N
1698434875.9,286047001.7,N
1698434895.7,286047001.8,N
1698434915.6,286047003.0,Y
1698434935.4,286046999.7,P
1698434955.3,286047001.5,N
1698434975.1,286047002.4,N
1698434976.0,286047002.4,N
1698434995.8,286047002.7,N
1698435015.7,286047002.8,N
1698435035.5,286047002.1,N
1698435055.3,286047004.0,Y
1698435075.2,286047000.4,P
1698435095.0,286047000.1,N
1698435095.9,286047000.1,N
1698435115.8,286047002.6,Y
1698435135.6,286047002.6,P
1698435155.4,286047000.5,N
1698435175.3,286047000.1,N
1698435195.1,286047000.9,N
1698435215.9,286046998.6,N
1698435235.7,286046999.7,N
1698435255.5,286047000.3,N
1698435275.4,286047002.7,N
1698435295.2,286047000.3,N
1698435315.1,286047000.1,N
1698435316.0,286047000.1,N
1698435335.8,286047000.1,N
1698435355.6,286047000.3,N
1698435375.5,286046999.7,N
1698435395.3,286047000.5,N
1698435415.1,286046998.1,N
1698435435.9,286047001.1,N
1698435455.7,286047000.7,N
1698435475.6,286046999.9,N
1698435495.4,286046999.7,N
1698435515.2,286047002.6,N
1698435535.1,286047002.8,N
1698435536.0,286047002.8,N
1698435555.8,286047002.4,N
1698435575.6,286047002.2,N
1698435595.5,286047002.2,N
1698435615.3,286046999.8,N
1698435635.2,286046999.7,N
1698435655.9,286047001.0,N
1698435675.7,286047000.3,N
1698435695.6,286047001.2,N
1698435715.4,286047000.9,N
1698435735.2,286047000.4,N
1698435755.1,286046998.7,N
1698435756.0,286046998.7,N
1698435775.8,286047001.2,N
1698435795.7,286047000.1,N
1698435815.5,286047002.8,N
1698435835.3,286047000.2,N
1698435855.2,286047001.9,N
1698435875.0,286047000.3,N
1698435875.9,286047000.3,N
1698435895.8,286047000.4,N
1698435915.6,286047000.9,N
1698435935.4,286047000.3,N
1698435955.3,286047000.5,N
1698435975.1,286046999.9,N
1698435995.9,286047000.3,N
1698436015.7,286047000.1,N
1698436035.5,286047002.5,N
1698436055.4,286047001.4,N
1698436075.2,286047003.7,Y
1698436095.0,286047001.9,P
1698436095.9,286047001.9,P
1698436115.8,286047001.9,P
1698436135.6,286047004.2,Y
1698436155.5,286047000.3,P
1698436175.3,286047001.0,N
1698436195.1,286047000.3,N
1698436215.9,286047000.6,N
1698436235.7,286047000.4,N
1698436255.6,286047000.6,N
1698436275.4,286046998.2,Y
1698436295.2,286046998.5,P
1698436315.1,286046998.1,N
1698436316.0,286046998.1,N
1698436335.8,286047000.3,N
1698436355.6,286047002.1,N
1698436375.5,286047002.7,N
1698436395.3,286047000.2,N
1698436415.2,286047001.2,N
1698436435.9,286047000.9,N
1698436455.7,286047000.8,N
1698436475.6,286047000.3,N
1698436495.4,286046999.8,N
1698436515.2,286047000.7,N
1698436535.1,286047001.0,N
1698436536.0,286047001.0,N
1698436555.8,286047002.4,N
1698436575.7,286047000.6,N
1698436595.5,286047000.3,N
1698436615.3,286046998.1,N
1698436635.2,286047001.1,N
1698436655.0,286046998.3,N
1698436655.9,286046998.3,N
1698436675.7,286046998.1,N
1698436695.6,286046998.1,N
1698436715.4,286046998.7,N
1698436735.3,286047001.2,N
1698436755.1,286047000.0,N
1698436756.0,286047000.0,N
1698436775.8,286047001.6,N
1698436795.7,286047000.1,N
